Wilmington, OH

12:36 PM EDT on May 29, 2017 (GMT -0400)
Airborne

Weather History for KILN - March, 2013

Change the Weather History Date:

Saturday, March 2, 2013

  Actual Average (KFFO) Record (KFFO)
Temperature  
Mean Temperature 26 °F -  
Max Temperature 28 °F 43 °F 59 °F (2008)
Min Temperature 24 °F 25 °F 10 °F (2009)
Degree Days  
Heating Degree Days 39    
Moisture  
Dew Point 20 °F    
Average Humidity 77    
Maximum Humidity 86    
Minimum Humidity 66    
Precipitation  
Precipitation 0.00 in - - ()
Sea Level Pressure  
Sea Level Pressure 30.08 in    
Wind  
Wind Speed 10 mph (NNW)    
Max Wind Speed 13 mph    
Max Gust Speed -    
Visibility 7 miles    
Events Snow    
Averages and records for this station are not official NWS values.
T = Trace of Precipitation, MM = Missing Value Source: NWS Daily Summary

Daily Weather History Graph

Daily Weather History Graph

Search for Another Location

Airport or City:

Trip Planner

Search our weather history database for the weather conditions in past years. The results will help you decide how hot, cold, wet, or windy it might be!

Date:

Astronomy

Mar. 02, 2013 Rise Set
Actual Time 7:06 AM EST 6:28 PM EST
Civil Twilight 6:39 AM EST 6:55 PM EST
Nautical Twilight 6:08 AM EST 7:26 PM EST
Astronomical Twilight 5:37 AM EST 7:58 PM EST
Moon No Moon Rise 9:35 AM EST (3/2)
Length of Visible Light 12h 16m
Length of Day
11h 22m
Waning Gibbous, 74% of the Moon is Illuminated
Mar 2
Waning Gibbous
Mar 4
Last Quarter
Mar 11
New
Mar 19
First Quarter
Mar 27
Full

Hourly Weather History & Observations

Time (EST) Temp. Windchill Dew Point Humidity Pressure Visibility Wind Dir Wind Speed Gust Speed Precip Events Conditions
1:54 AM 27.0 °F 16.7 °F 21.0 °F 78% 30.09 in 10.0 mi NE 11.5 mph - N/A   Overcast
2:54 AM 26.1 °F 16.8 °F 21.0 °F 81% 30.09 in 7.0 mi NE 9.2 mph - 0.00 in Snow Light Snow
3:54 AM 26.1 °F 15.6 °F 19.0 °F 75% 30.07 in 10.0 mi NNW 11.5 mph - 0.00 in   Overcast
4:54 AM 26.1 °F 16.8 °F 19.0 °F 75% 30.07 in 9.0 mi NNE 9.2 mph - 0.00 in   Overcast
5:54 AM 26.1 °F 16.2 °F 19.9 °F 78% 30.07 in 10.0 mi North 10.4 mph - N/A   Overcast
6:54 AM 26.1 °F 16.8 °F 19.9 °F 78% 30.08 in 8.0 mi NNW 9.2 mph - 0.00 in   Overcast
7:54 AM 26.1 °F 16.8 °F 19.9 °F 78% 30.10 in 6.0 mi NNE 9.2 mph - 0.00 in Snow Light Snow
8:54 AM 26.1 °F 18.4 °F 19.9 °F 78% 30.11 in 5.0 mi North 6.9 mph - 0.00 in Snow Light Snow
9:05 AM 26.6 °F 16.2 °F 19.4 °F 74% 30.02 in 2.5 mi North 11.5 mph - 0.00 in Snow Light Snow
9:14 AM 26.6 °F 17.5 °F 19.4 °F 74% 30.02 in 5.0 mi North 9.2 mph - 0.00 in Snow Light Snow
9:31 AM 24.8 °F 15.3 °F 19.4 °F 80% 30.02 in 1.8 mi North 9.2 mph - 0.00 in Snow Light Snow
9:43 AM 26.6 °F 20.0 °F 21.2 °F 80% 30.02 in 3.0 mi NNW 5.8 mph - 0.00 in Snow Light Snow
9:54 AM 26.1 °F 16.8 °F 21.0 °F 81% 30.11 in 3.0 mi North 9.2 mph - 0.00 in Snow Light Snow
10:14 AM 26.6 °F 16.8 °F 21.2 °F 80% 30.02 in 2.5 mi NNW 10.4 mph - 0.00 in Snow Light Snow
10:26 AM 24.8 °F 14.6 °F 21.2 °F 86% 30.02 in 1.5 mi NNW 10.4 mph - 0.00 in Snow Light Snow
10:40 AM 26.6 °F 17.5 °F 21.2 °F 80% 30.02 in 2.0 mi NNW 9.2 mph - 0.00 in Snow Light Snow
10:54 AM 25.0 °F 13.6 °F 21.0 °F 85% 30.12 in 3.0 mi NNW 12.7 mph - 0.00 in Snow Light Snow
11:00 AM 24.8 °F 14.0 °F 21.2 °F 86% 30.03 in 2.5 mi NNW 11.5 mph - 0.00 in Snow Light Snow
11:19 AM 24.8 °F 14.0 °F 19.4 °F 80% 30.03 in 4.0 mi North 11.5 mph - 0.00 in Snow Light Snow
11:54 AM 26.1 °F 16.8 °F 19.0 °F 75% 30.12 in 10.0 mi NNW 9.2 mph - 0.00 in   Overcast
12:21 PM 28.4 °F 20.4 °F 21.2 °F 74% 30.02 in 10.0 mi NW 8.1 mph - N/A   Overcast
12:54 PM 28.0 °F 18.6 °F 19.0 °F 69% 30.10 in 10.0 mi NW 10.4 mph - N/A   Overcast
1:54 PM 27.0 °F 17.3 °F 19.0 °F 72% 30.09 in 8.0 mi NW 10.4 mph - 0.00 in Snow Light Snow
2:30 PM 28.4 °F 18.5 °F 19.4 °F 69% 30.00 in 9.0 mi NW 11.5 mph - 0.00 in   Overcast
2:54 PM 28.0 °F 18.1 °F 18.0 °F 66% 30.09 in 10.0 mi NNW 11.5 mph - 0.00 in   Overcast
3:54 PM 27.0 °F 16.7 °F 19.9 °F 75% 30.09 in 7.0 mi NNW 11.5 mph - 0.00 in   Overcast
4:54 PM 27.0 °F 18.7 °F 19.0 °F 72% 30.10 in 9.0 mi NW 8.1 mph - N/A   Overcast
5:54 PM 26.1 °F 16.8 °F 19.9 °F 78% 30.11 in 5.0 mi NW 9.2 mph - 0.00 in Snow Light Snow
6:54 PM 26.1 °F 16.2 °F 19.0 °F 75% 30.13 in 8.0 mi NNW 10.4 mph - 0.00 in Snow Light Snow
7:54 PM 26.1 °F 18.4 °F 19.0 °F 75% 30.14 in 10.0 mi NNW 6.9 mph - 0.00 in   Overcast
8:54 PM 26.1 °F 18.4 °F 18.0 °F 71% 30.13 in 10.0 mi NNW 6.9 mph - N/A   Overcast
9:54 PM 26.1 °F 19.4 °F 19.0 °F 75% 30.13 in 10.0 mi North 5.8 mph - N/A   Overcast
10:54 PM 26.1 °F 19.4 °F 19.0 °F 75% 30.13 in 10.0 mi NW 5.8 mph - N/A   Overcast
11:54 PM 26.1 °F 19.4 °F 19.0 °F 75% 30.12 in 10.0 mi NW 5.8 mph - N/A   Overcast